User: anonymous   Login
Location: Brachbach
(49.1847°N, 9.7240°E)
Time: 17:18:05
(UTC+00:00)
Language:

Cosmos 1455 Rocket - Orbit

View from above orbital plane
View from above orbital plane
View from above satellite
View from above satellite

Ground track
Ground track

The orbit data is extracted from the following two-line orbital elements,

1 14033U 83037B   24200.15182411  .00001011  00000-0  11545-3 0  9995
2 14033  82.5058  76.4650 0016410 212.1310 147.8907 14.85028804863420
Epoch (UTC): 18 July 2024 03:38:37
Eccentricity: 0.0016410
inclination: 82.5058°
perigee height: 602 km
apogee height: 625 km
right ascension of ascending node: 76.4650°
argument of perigee: 212.1310°
revolutions per day: 14.85028804
mean anomaly at epoch: 147.8907°
orbit number at epoch: 86342

The dashed part of the orbit path shows where the satellite is in the earth's shadow,  

DLR